Date,TemperatureHighF,TemperatureAvgF,TemperatureLowF,DewpointHighF,DewpointAvgF,DewpointLowF,HumidityHigh,HumidityAvg,HumidityLow,PressureMaxIn,PressureMinIn,WindSpeedMaxMPH,WindSpeedAvgMPH,GustSpeedMaxMPH,PrecipitationSumIn
2013-1-1,37,34,25,34,31,22,90,89,84,29.28,29.07,7,1,10,0.00
2013-1-2,38,28,20,30,23,17,88,82,70,29.31,29.22,4,0,4,0.00
2013-1-3,43,31,22,31,24,19,88,76,55,29.45,29.28,7,0,7,0.00
2013-1-4,46,33,22,29,23,18,86,70,46,29.50,29.36,5,0,6,0.00
2013-1-5,49,37,28,34,28,21,83,71,56,29.37,29.21,10,1,12,0.00
2013-1-6,46,36,25,29,26,18,84,69,47,29.40,29.24,12,2,15,0.00
2013-1-7,53,34,20,32,23,16,85,66,42,29.42,29.18,8,1,10,0.00
2013-1-8,57,44,28,41,32,21,80,65,48,29.24,29.11,12,1,12,0.00
2013-1-9,47,47,46,42,41,41,83,81,80,29.27,29.23,3,0,3,0.00
2013-1-10,52,48,44,49,45,39,92,88,66,29.31,28.90,4,0,4,0.16
2013-1-11,67,57,43,51,46,40,91,68,53,28.95,28.84,17,4,17,0.00
2013-1-12,56,47,32,50,42,30,91,84,75,28.98,28.83,17,2,17,0.68
2013-1-13,33,28,20,31,22,15,91,80,66,29.39,28.96,13,4,13,0.00
2013-1-14,30,22,15,19,15,11,86,74,56,29.51,29.36,8,0,8,0.00
2013-1-15,32,25,17,23,18,12,83,76,68,29.37,29.18,7,0,7,0.00
2013-1-16,45,31,18,25,20,14,85,66,40,29.23,29.12,7,0,7,0.00
2013-1-17,46,35,28,33,26,20,77,68,52,29.51,29.21,13,1,13,0.00
2013-1-18,59,39,22,35,25,18,84,61,31,29.54,29.24,18,3,18,0.00
2013-1-19,66,49,37,38,31,23,66,50,32,29.25,29.10,18,2,18,0.00
2013-1-20,57,42,30,34,28,20,82,60,36,29.33,29.18,8,0,8,0.00
2013-1-21,40,30,24,20,15,12,64,53,38,29.43,29.29,16,1,16,0.00
2013-1-22,43,29,18,21,16,11,75,59,41,29.41,29.28,10,1,10,0.00
2013-1-23,57,37,20,39,27,14,79,67,51,29.33,29.17,3,0,3,0.00
2013-1-24,39,34,29,32,18,13,78,52,43,29.44,29.22,14,2,14,0.00
2013-1-25,50,37,29,34,27,18,81,68,54,29.29,29.16,8,1,8,0.00
2013-1-26,58,43,29,35,28,24,82,58,35,29.34,29.23,13,2,13,0.00
2013-1-27,57,50,44,54,42,28,89,76,50,29.25,29.00,15,3,15,0.04
2013-1-28,76,66,57,62,58,54,90,77,59,29.05,28.93,26,6,26,0.00
2013-1-29,71,62,52,63,57,50,92,84,74,28.93,28.47,22,5,22,1.18
2013-1-30,52,46,38,50,42,32,91,86,79,28.70,28.53,19,5,19,0.00
2013-1-31,50,31,21,31,21,6,84,67,42,29.44,29.04,12,3,12,0.00